Location: Hysolar-Haus
(48.7436°N, 9.0965°E)
Time: 11:00:08
(UTC+00:00)

ISS - Visible Passes

Search period start: 25 May 2018 00:00
Search period end: 04 June 2018 00:00
Orbit: 402 x 407 km, 51.6° (Epoch: 25 May)

Date Brightness Start Highest point End Pass type
(mag) Time Alt. Az. Time Alt. Az. Time Alt. Az.
25 May -3.0 00:06:06 10° WNW 00:08:17 39° WNW 00:08:17 39° WNW visible
25 May -3.9 20:00:30 10° WSW 20:03:47 88° SSE 20:07:04 10° ENE visible
25 May -2.8 21:37:16 10° WNW 21:40:27 48° N 21:43:38 10° ENE visible
25 May -3.8 23:13:53 10° WNW 23:17:10 77° NNE 23:17:14 76° NE visible
26 May -3.0 20:44:56 10° W 20:48:09 52° N 20:51:22 10° ENE visible
26 May -3.3 22:21:40 10° WNW 22:24:55 59° NNE 22:26:25 28° E visible
26 May -1.6 23:58:14 10° WNW 23:59:02 16° W 23:59:02 16° W visible
27 May -3.3 19:52:36 10° W 19:55:51 63° NNW 19:59:07 10° ENE visible
27 May -3.0 21:29:24 10° WNW 21:32:37 51° N 21:35:41 11° E visible
27 May -3.1 23:05:57 10° WNW 23:08:19 42° W 23:08:19 42° W visible
28 May -2.8 20:37:05 10° WNW 20:40:17 48° N 20:43:29 10° ENE visible
28 May -3.9 22:13:41 10° WNW 22:16:59 86° NNE 22:17:38 54° ESE visible
29 May -3.5 21:21:26 10° WNW 21:24:42 64° NNE 21:27:01 18° E visible
29 May -2.1 22:58:03 10° W 22:59:38 23° W 22:59:38 23° W visible
30 May -3.1 20:29:09 10° WNW 20:32:22 53° N 20:35:35 10° E visible
30 May -3.8 22:05:41 10° WNW 22:08:54 56° SSW 22:09:02 55° SSW visible
31 May -3.9 21:13:22 10° WNW 21:16:40 84° SSW 21:18:26 25° ESE visible
31 May -1.4 22:50:25 10° W 22:51:05 13° WSW 22:51:05 13° WSW visible
01 Jun -3.6 20:21:05 10° WNW 20:24:21 71° NNE 20:27:37 10° ESE visible
01 Jun -2.7 21:57:45 10° W 22:00:31 29° SW 22:00:31 29° SW visible
02 Jun -3.4 21:05:19 10° WNW 21:08:29 47° SSW 21:09:59 26° SSE visible
03 Jun -3.8 20:12:57 10° WNW 20:16:14 74° SSW 20:19:28 10° ESE visible
03 Jun -1.7 21:50:12 10° W 21:52:06 16° SW 21:52:06 16° SW visible
